Weather in York

United Kingdom     53°57′51″N   1°05′08″W
temp.,
°C
wind,
m/s
gust,
m/s
humid.,
%
clouds,
%
prec.,
mm/h
press.,
hPa
HPBL,
m
9 may, sun
sun901:00+12s71496100 1.9 994677
04:00+12s71594100 0.6 993850
07:00+11s71392100 0.8 993671
10:00+12ssw51085100 0.2 994687
13:00+16ssw81370100 0.4 9931716
16:00+16sw61168100 0.3 9931503
19:00+14ssw5983100 0.9 993661
22:00+10sse3794100 0.0 993138
10 may, mon
mon1001:00+9sse499789 0.1 994215
04:00+9s41094100 0.0 993371
07:00+9s5109387 0.0 994603
10:00+11s61182100 0.0 9961262
13:00+14s81273100 0.3 9961697
16:00+14ssw8137352 0.9 9971773
19:00+12ssw8128015 1.7 9991001
22:00+9s613853 0.0 1002501
11 may, tue
tue1101:00+6s511920 0.0 1005300
04:00+4s39950 0.0 1006162
07:00+6sse358736 0.0 1007156
10:00+12sse56715 0.0 1008818
13:00+15sse566396 0.2 10071420
16:00+13ese698198 1.6 10071035
19:00+12se71288100 3.6 1006797
22:00+10se5108974 2.0 1007389
12 may, wed
wed1201:00+7sse51094100 2.1 1006342
04:00+5se3898100 0.0 1007200
07:00+7se3797100 0.0 1008292
10:00+12s678282 0.2 1008905
13:00+12s4678100 0.4 1009884
16:00+12sse4680100 0.2 1009658
19:00+12sse468117 0.3 1009486
22:00+8sse349216 0.1 101075
13 may, thu
thu1301:00+6s229436 0.1 101115
04:00+5s119388 0.0 101110
07:00+8wsw018969 0.0 101173
10:00+13wnw007287 0.0 1011636
13:00+15nnw115899 0.1 10111431
16:00+14e447793 1.3 1010845
19:00+11ene568376 1.9 1011532
22:00+6nne389613 0.0 1012213